GFSSE_sfc_temp_000.txt.gz
Temp
73 72 78 79 78 78 79 79 78 78 78 77 77 77 77 76 76 76 76 76 75 76 76 77 77 78 78 78 78 78 78 78 78 79 79 79 79 80 80 80 80 80 79
79 72 78 78 78 79 79 79 78 78 77 77 77 77 77 76 76 76 76 76 76 76 76 77 77 78 78 78 78 78 78 78 78 78 79 79 79 80 80 81 80 79 79
76 73 77 78 78 78 78 78 78 77 77 77 77 77 77 77 77 76 76 76 76 76 77 77 77 78 78 78 79 79 78 78 78 78 79 76 76 79 80 81 80 79 78
73 73 75 78 78 78 78 78 77 77 77 77 77 77 77 77 77 77 77 77 76 77 77 77 77 78 78 78 79 79 78 78 78 78 75 75 75 78 79 80 80 79 78
73 73 74 78 77 78 78 78 77 77 77 77 77 77 77 77 77 77 77 77 77 78 78 78 78 77 77 78 78 78 78 77 78 77 74 73 73 76 78 78 79 78 77
73 74 76 78 77 78 78 78 77 77 77 77 77 77 77 77 76 75 76 77 77 78 78 78 78 77 77 77 77 77 77 77 77 74 72 73 74 74 77 78 78 77 74
70 72 74 77 77 78 78 78 77 77 77 76 77 77 77 76 76 76 76 76 77 77 78 78 78 77 76 77 77 77 77 77 75 72 72 72 72 73 76 78 78 77 75
70 68 71 78 77 77 77 77 77 76 76 76 76 76 76 76 76 75 75 76 76 76 77 77 77 77 76 75 76 76 76 76 76 71 71 71 72 73 76 78 77 77 78
70 69 70 74 76 77 77 77 76 76 76 75 75 75 74 74 75 74 74 74 75 75 75 75 75 75 75 75 75 75 75 75 72 70 71 71 72 74 76 78 77 77 77
67 69 70 71 72 72 73 77 76 75 75 74 74 74 74 74 74 73 73 72 73 74 74 74 75 75 75 75 74 74 75 75 72 70 70 70 73 75 77 77 78 77 77
67 66 68 69 69 69 70 73 75 76 75 74 73 74 72 66 66 68 69 72 72 72 73 73 74 74 74 74 74 74 75 70 70 69 69 71 73 75 77 77 77 77 77
65 65 66 66 66 67 69 68 68 68 67 66 66 65 65 64 63 66 68 71 72 73 73 74 73 74 74 69 71 74 71 70 69 68 69 72 74 75 77 77 77 77 77
70 68 64 64 64 65 65 64 63 63 63 63 64 64 63 63 62 63 63 63 63 67 65 66 66 68 68 67 67 68 69 69 67 68 69 72 74 76 77 77 77 77 76
65 67 64 63 63 63 63 62 62 61 61 61 62 63 61 61 61 61 61 62 62 63 63 64 64 65 65 66 66 67 67 68 66 66 68 72 73 75 76 77 77 77 76
64 63 63 62 62 61 61 61 61 61 61 61 61 61 61 60 60 61 61 61 62 63 63 63 63 63 64 64 66 66 67 66 66 66 67 71 73 74 75 76 77 76 76
65 63 61 62 62 61 60 60 61 60 61 61 60 61 62 61 61 60 61 61 62 62 61 62 63 62 63 63 64 65 65 65 66 66 67 68 72 72 75 76 77 76 76
63 61 62 62 61 61 61 61 60 61 61 60 61 62 62 62 61 61 61 61 61 61 61 61 61 62 61 62 63 64 64 65 65 66 67 68 69 71 73 74 75 75 74
60 62 61 66 61 61 60 60 60 60 60 60 61 61 63 63 62 61 61 60 61 60 60 60 60 60 61 61 61 62 63 64 65 66 67 68 69 70 71 74 73 74 73
61 61 61 62 61 61 60 60 60 61 60 61 61 61 62 63 63 61 60 60 61 60 59 59 59 60 59 60 61 61 62 63 64 66 67 68 69 69 70 72 71 73 73
61 63 63 61 61 60 60 59 59 59 60 61 61 62 63 62 63 61 60 60 60 59 58 58 59 59 60 60 61 62 61 62 63 65 66 67 68 68 69 70 70 72 72
61 61 61 60 59 59 58 58 58 59 59 60 61 63 63 63 63 61 60 60 59 59 59 58 59 59 59 60 58 59 60 63 63 63 65 66 67 66 68 69 69 70 70
62 62 59 60 59 59 59 59 59 59 59 60 61 63 63 63 62 61 60 60 59 58 58 58 58 57 58 59 58 58 57 60 62 64 64 65 67 68 68 69 68 69 69
61 60 61 60 59 60 60 59 59 59 59 59 59 60 61 63 63 62 61 60 59 58 57 57 58 59 57 58 60 59 55 55 59 62 63 64 66 66 66 68 67 68 68
61 61 60 60 60 61 60 60 60 58 57 57 58 59 60 63 63 62 61 60 59 58 57 58 59 60 60 58 59 61 60 61 57 56 62 63 65 65 66 66 65 67 67
60 61 60 60 60 61 60 60 59 58 57 58 58 59 59 61 63 62 61 60 59 58 59 59 59 59 60 59 60 60 61 61 61 60 56 60 62 64 65 66 66 65 66
59 59 59 60 60 60 60 60 60 59 58 57 57 57 57 58 60 61 61 60 60 59 59 59 60 60 60 61 61 61 61 60 59 59 59 59 60 62 64 65 65 65 65

GFSSE_sfc_temp_003.txt.gz
Temp
86 87 78 79 78 78 79 79 78 78 78 78 78 77 77 77 76 76 76 76 76 76 76 77 77 78 78 78 78 78 78 78 78 79 79 79 79 80 80 81 81 86 80
89 86 78 78 78 78 79 79 78 78 77 78 78 77 77 77 77 76 76 76 76 76 77 77 77 78 78 78 79 78 79 78 78 78 79 80 79 80 80 81 81 84 79
86 84 82 78 78 78 78 78 78 77 77 77 77 77 77 77 77 77 76 76 76 77 77 77 77 78 78 78 79 79 79 78 78 78 79 85 84 79 80 81 81 80 78
86 82 84 78 78 78 78 78 77 77 77 77 77 78 78 77 77 77 77 77 77 77 78 78 78 78 78 78 78 79 79 78 78 78 84 84 84 79 80 80 80 80 79
84 83 83 78 78 78 78 78 77 77 77 77 77 77 78 77 77 77 77 77 77 78 79 78 78 78 78 78 78 78 78 78 78 80 82 82 83 82 79 79 80 79 78
85 84 82 78 78 78 78 78 77 77 77 77 77 77 77 77 77 76 77 77 78 78 78 79 78 78 77 77 77 77 78 77 78 83 81 80 81 77 77 78 79 79 76
86 84 85 78 77 78 78 78 77 77 77 77 77 77 77 77 76 76 76 77 77 77 78 78 78 78 77 77 76 77 77 77 82 81 81 81 81 74 76 78 78 77 75
86 84 84 79 77 77 78 78 77 77 77 77 77 77 77 77 76 76 76 76 76 76 76 77 77 77 76 76 76 75 76 76 80 80 81 81 78 74 76 77 78 77 76
88 84 84 85 81 77 77 77 77 76 76 76 76 76 76 75 75 75 75 75 75 75 75 75 76 76 75 75 76 75 76 76 80 80 81 82 76 75 76 77 78 78 76
86 86 85 84 85 84 84 77 76 76 76 75 75 75 75 75 75 74 73 73 73 74 74 75 75 75 75 74 75 75 75 76 80 80 81 82 74 75 77 77 78 77 77
84 83 84 84 83 83 85 82 77 77 76 75 75 75 75 79 78 77 74 72 72 73 73 74 74 74 74 75 75 74 75 81 81 81 81 76 74 75 77 77 77 77 77
82 82 84 80 82 82 82 81 82 82 81 79 78 77 78 77 76 76 74 72 72 73 73 73 73 73 75 80 81 76 80 81 80 79 81 74 73 75 77 77 77 77 77
85 84 82 79 79 80 81 81 81 80 79 77 76 76 76 75 75 76 76 76 76 74 77 76 76 78 76 78 79 79 80 79 79 80 79 73 73 75 77 77 77 77 76
85 83 81 79 77 77 80 79 80 78 77 77 77 75 75 75 74 73 75 75 73 75 74 75 76 74 75 76 77 77 78 78 79 79 78 73 73 74 76 77 77 77 76
82 82 80 77 77 76 76 78 77 77 77 78 77 76 75 75 73 74 73 75 74 76 74 72 72 74 73 74 76 76 77 77 76 77 78 74 72 73 75 76 77 77 76
81 81 78 77 76 76 76 75 75 75 77 77 76 76 74 74 73 74 73 73 71 68 71 72 74 73 74 73 74 74 75 75 75 75 78 78 72 72 74 76 76 76 76
81 80 74 75 75 74 74 75 76 78 77 76 75 73 73 73 72 71 70 71 70 67 69 71 72 72 71 73 73 74 75 74 75 75 77 78 79 72 73 74 76 75 76
81 73 75 77 74 74 74 75 77 77 77 76 75 75 73 73 72 71 70 70 68 68 70 71 70 71 71 72 70 72 73 74 74 75 77 77 76 77 75 74 75 75 75
75 73 73 74 74 73 74 76 75 74 74 75 75 75 73 73 72 70 69 67 69 69 71 69 69 70 69 70 70 72 74 74 74 76 75 76 77 77 79 75 73 74 73
73 73 73 74 73 73 74 73 74 74 74 74 74 74 73 73 72 69 67 66 69 70 70 70 68 69 69 69 69 69 72 74 75 73 74 77 76 78 79 79 78 78 72
71 71 72 72 71 73 73 73 73 73 74 74 74 73 73 73 72 70 69 67 65 68 68 69 69 68 67 68 67 68 69 71 73 73 75 75 75 76 78 80 79 80 74
70 71 71 72 71 73 74 73 75 74 75 75 74 72 73 73 72 70 67 68 66 67 67 67 67 67 66 68 66 67 62 67 71 73 72 72 75 78 76 74 74 77 73
70 70 71 71 71 72 73 72 71 72 72 73 73 73 73 72 71 69 69 69 68 69 68 67 66 67 65 68 68 67 63 66 69 72 70 68 70 74 72 70 73 73 69
71 72 73 72 71 72 72 72 71 73 72 72 71 71 71 72 71 70 69 69 69 71 68 68 69 69 68 65 67 68 70 70 68 62 68 68 69 70 68 69 69 68 72
71 72 72 72 72 72 71 73 73 71 72 71 71 68 69 70 70 70 70 70 69 71 68 68 67 67 67 66 67 68 68 69 71 66 61 66 69 68 67 68 68 68 68
73 73 72 72 71 72 73 72 72 71 69 71 69 69 69 70 68 70 70 70 69 70 69 69 69 68 68 68 68 69 67 70 69 67 65 65 62 64 68 66 68 66 66

GFSSE_sfc_temp_006.txt.gz
Temp
98 94 79 79 79 79 79 79 79 78 78 78 78 78 77 77 77 77 77 77 76 77 77 77 78 78 78 79 79 79 79 79 78 79 79 79 80 81 81 81 81 88 79
100 94 79 79 79 79 79 79 78 78 78 78 78 78 77 77 77 77 77 77 77 77 77 77 78 78 78 79 79 79 79 79 78 78 79 79 80 81 81 81 81 86 79
98 93 85 79 79 79 79 78 78 78 78 78 78 78 78 77 77 77 77 77 77 77 77 78 78 78 78 79 79 79 79 79 78 78 79 88 89 81 81 81 81 80 79
97 92 90 78 79 79 79 78 78 78 78 78 78 78 78 77 77 77 77 77 77 77 78 78 78 78 78 78 79 79 79 79 79 79 86 92 90 80 80 81 81 80 79
95 92 91 78 78 79 79 78 77 77 77 77 78 78 78 78 77 77 77 78 78 78 78 79 79 79 78 78 78 78 79 79 78 81 89 89 89 85 80 80 80 79 78
96 95 88 78 78 78 79 78 77 77 77 77 78 78 78 78 77 77 77 77 78 78 79 79 79 79 79 77 77 77 78 78 78 87 87 86 85 80 77 79 79 80 78
98 96 95 78 78 78 79 78 78 77 77 77 77 78 78 77 77 77 77 77 77 78 78 78 78 78 78 78 77 76 77 78 84 87 87 86 87 77 76 77 79 78 77
99 96 96 80 78 77 78 78 77 77 77 77 77 77 77 77 77 77 76 76 76 76 76 77 77 77 77 77 77 77 76 76 83 83 83 87 81 76 76 77 78 78 77
102 98 96 92 83 77 77 77 77 77 76 76 76 76 76 77 76 75 75 75 75 75 76 76 75 75 76 76 76 76 76 76 83 83 83 84 77 76 77 77 77 78 76
102 100 98 93 91 88 88 77 77 76 76 76 76 76 76 75 76 75 74 74 74 74 74 75 75 75 75 75 75 75 75 76 83 86 85 82 76 76 77 77 77 77 77
99 97 97 95 93 91 94 87 77 77 77 76 77 76 76 83 85 83 78 73 73 73 73 74 74 74 74 75 75 75 75 84 86 88 86 79 76 76 77 77 77 77 77
96 97 98 92 92 92 95 91 86 87 87 85 85 83 82 83 83 81 77 74 73 73 74 74 73 73 74 83 85 77 82 84 86 86 88 76 75 76 77 77 77 77 76
99 97 96 91 89 90 92 90 89 89 87 86 84 82 82 83 82 83 83 83 82 77 82 81 81 83 83 80 85 87 87 82 78 85 86 75 74 75 76 77 78 77 76
99 98 95 93 87 86 92 90 91 90 87 86 85 81 80 81 80 79 82 83 80 82 81 81 83 80 80 81 80 77 83 86 77 77 84 75 74 74 75 77 77 77 76
96 97 95 91 86 85 86 89 88 88 86 86 86 83 82 82 80 81 79 80 79 82 82 81 80 80 79 79 81 78 78 83 84 81 83 75 74 73 74 76 77 77 76
95 95 95 90 86 85 85 85 84 84 86 85 86 84 81 81 80 81 76 74 73 75 80 80 78 80 81 80 80 79 81 81 81 79 84 83 74 73 74 75 76 77 77
94 94 90 88 85 83 82 83 84 86 85 86 85 82 81 80 79 77 73 73 74 74 74 76 76 76 79 80 79 78 80 79 79 79 81 83 83 72 73 74 76 77 77
93 92 90 88 85 82 82 83 85 87 86 86 85 84 81 79 78 76 72 71 73 72 70 69 74 76 79 80 78 77 77 80 79 79 81 82 85 83 76 75 76 77 76
91 88 85 84 85 81 81 83 84 82 84 85 85 84 82 80 79 75 72 72 73 67 67 72 73 74 74 77 76 75 75 80 80 82 81 80 80 82 85 76 75 75 74
89 85 82 83 83 81 82 82 85 84 84 84 84 84 81 81 79 74 72 72 67 67 70 73 72 73 76 75 73 73 74 79 80 79 80 82 80 81 82 84 82 81 73
84 81 80 80 80 81 82 82 82 82 82 83 83 81 80 80 78 75 71 70 71 69 66 69 70 70 70 72 68 69 71 74 75 80 81 79 79 79 79 83 84 82 79
80 80 80 80 78 80 83 83 84 83 85 85 85 81 80 79 77 75 72 72 72 74 72 71 69 68 68 71 66 68 63 68 76 77 80 77 77 78 79 82 82 81 79
79 79 79 79 78 81 81 81 80 80 81 81 81 81 81 78 78 75 74 72 73 71 69 70 69 68 66 70 70 68 65 66 73 75 74 78 77 75 79 78 79 79 76
80 80 80 78 78 79 79 80 78 80 80 82 81 82 80 77 77 77 74 75 72 73 71 70 72 70 69 65 69 74 74 71 73 67 69 74 77 75 76 75 74 70 69
80 79 78 78 78 78 79 80 80 79 80 81 81 75 75 75 76 77 75 75 74 74 72 73 72 71 72 70 72 72 72 75 76 76 66 67 70 74 73 73 71 71 71
81 80 79 78 77 78 79 79 78 76 77 79 77 77 75 70 75 75 76 75 75 73 74 75 74 73 71 70 72 75 70 70 75 70 69 68 68 68 71 71 69 68 67

GFSSE_sfc_temp_009.txt.gz
Temp
103 92 79 79 79 79 79 79 79 79 78 78 78 78 78 78 78 78 78 77 77 77 78 78 78 78 79 79 79 79 79 79 79 79 80 80 81 82 81 82 81 86 79
105 92 79 79 79 79 79 79 79 78 78 78 78 78 78 78 78 78 78 78 77 77 78 78 78 78 79 79 79 79 79 79 79 79 79 80 81 81 81 81 82 84 79
103 92 85 79 79 79 79 79 78 78 78 78 78 78 78 78 78 78 78 78 77 78 78 78 78 78 78 79 79 79 79 79 79 79 80 85 90 81 81 81 81 81 79
102 92 89 79 79 79 79 78 78 78 78 78 78 78 78 78 78 78 78 78 78 78 78 79 79 79 78 79 79 79 79 80 79 79 85 90 92 81 81 80 80 80 78
100 94 91 78 78 79 79 78 78 77 78 78 78 78 78 78 78 78 78 78 78 78 79 79 79 79 78 78 78 78 79 79 79 81 87 89 91 87 81 80 80 79 78
101 98 87 78 78 79 79 78 78 77 78 78 78 78 78 78 77 77 77 77 78 78 79 79 79 79 78 78 77 77 78 78 78 85 87 88 88 81 79 79 79 80 77
102 100 93 78 78 78 79 78 78 77 77 77 78 78 78 77 77 77 77 77 77 78 78 78 78 77 77 78 78 77 77 77 82 86 88 88 88 79 78 78 78 79 78
104 100 98 80 78 78 78 78 78 77 77 77 77 77 77 77 77 77 77 76 77 77 77 77 76 76 76 77 77 77 77 77 83 83 86 87 80 79 78 77 77 77 78
108 103 101 91 83 77 78 77 77 77 77 76 76 76 77 77 77 77 76 76 76 76 76 76 76 76 76 76 76 76 76 77 81 83 82 80 78 79 79 78 78 77 77
108 106 102 97 91 87 87 77 77 77 76 76 76 76 76 77 77 76 75 75 76 75 74 74 75 75 75 75 75 75 76 76 81 84 86 85 79 78 78 78 78 77 77
106 105 103 101 96 91 93 88 77 77 77 76 77 76 77 83 85 82 80 75 74 74 74 74 74 74 75 75 75 75 76 81 84 85 87 79 77 77 77 78 78 77 77
103 104 105 98 96 94 96 92 86 86 85 84 85 84 83 83 84 84 80 75 74 74 74 74 74 74 75 82 83 76 79 83 84 86 87 77 77 77 77 77 78 77 76
105 105 103 96 94 94 94 95 90 89 88 87 85 85 84 84 85 86 85 85 79 74 81 78 78 79 79 78 84 78 82 83 85 85 83 76 76 76 77 77 78 78 76
104 104 102 99 92 90 96 95 94 91 90 89 88 84 82 83 82 81 84 85 82 83 82 82 82 79 80 80 80 83 83 80 86 85 83 77 75 76 76 77 77 78 76
100 101 102 97 91 89 88 94 92 92 91 89 89 86 84 84 82 84 82 81 81 82 81 76 77 75 76 76 78 79 79 76 78 83 84 76 75 75 75 76 77 77 77
99 100 101 97 90 88 87 89 88 89 90 88 89 88 84 83 82 83 81 78 77 78 81 81 76 73 72 73 75 75 77 74 75 75 80 76 74 74 74 75 76 77 78
99 99 96 96 91 86 85 88 88 90 89 88 87 86 85 83 81 79 81 76 73 72 72 71 74 75 77 77 75 73 79 74 74 77 77 75 79 73 74 74 76 76 77
97 96 95 98 91 86 85 87 88 90 87 89 89 88 83 82 81 79 79 74 74 73 72 72 68 74 76 71 72 71 79 73 77 77 74 82 84 80 74 74 75 76 77
96 95 94 93 92 85 85 86 86 86 86 88 89 88 86 84 83 79 79 76 74 72 74 74 71 71 71 71 71 76 78 78 72 79 80 80 79 79 80 75 75 75 76
96 95 92 91 88 85 85 85 86 87 86 88 87 87 85 84 82 77 79 74 73 74 73 70 70 69 72 71 76 73 75 78 71 78 78 78 82 81 83 80 79 80 74
94 91 88 84 84 84 84 83 84 84 84 85 86 85 83 83 80 78 77 74 72 72 71 72 70 66 69 72 69 69 69 75 74 78 74 81 75 81 83 83 84 85 77
89 86 83 82 83 83 85 84 86 86 86 86 87 85 83 83 82 76 75 71 72 70 71 72 71 68 66 69 66 66 61 65 74 77 74 72 80 77 81 81 82 84 78
85 82 82 82 81 82 84 85 84 85 85 83 84 83 83 82 81 77 75 73 74 73 72 70 69 68 65 67 69 66 62 63 70 72 73 78 77 76 79 80 82 81 77
85 84 83 82 80 83 83 82 80 81 81 84 84 85 82 81 77 77 76 75 74 75 71 71 71 70 69 66 67 68 70 71 67 66 73 71 73 73 75 76 76 77 76
85 83 81 80 81 81 82 82 81 82 83 84 83 79 77 78 77 76 76 74 74 72 73 72 72 70 69 67 67 70 74 73 68 66 68 70 70 72 76 75 74 73 74
84 82 80 79 79 80 81 80 81 79 80 81 79 79 74 76 76 76 79 77 76 76 74 74 75 71 70 70 70 74 75 73 72 68 69 68 70 72 72 72 70 67 68

GFSSE_sfc_temp_015.txt.gz
Temp
76 77 79 79 79 78 79 79 78 78 78 78 78 78 78 77 78 78 78 77 77 78 78 78 78 78 78 79 79 79 78 79 79 79 79 79 80 81 80 80 81 81 79
78 77 78 78 78 79 78 78 78 78 77 78 78 78 77 77 77 77 77 77 77 77 78 78 78 78 78 78 79 78 78 78 78 78 79 79 79 80 80 79 80 79 79
77 76 78 78 78 79 78 78 78 77 77 77 77 77 77 77 78 77 77 77 77 77 78 78 78 78 78 78 78 78 78 78 78 78 79 73 75 80 80 80 80 79 79
77 75 76 78 78 79 78 78 77 77 77 77 77 77 77 77 77 77 77 77 77 78 78 78 78 78 78 78 78 78 78 78 78 79 74 74 75 82 81 80 80 79 78
77 75 76 78 78 79 78 78 77 77 77 77 77 77 77 77 77 77 77 77 78 78 78 78 78 79 79 78 78 78 77 78 78 78 73 71 70 81 82 80 79 79 78
78 78 78 78 78 78 78 78 77 77 77 77 77 77 77 77 77 76 77 77 77 78 78 78 78 78 78 78 77 77 77 77 78 74 72 74 75 80 80 80 80 78 77
79 80 77 77 78 78 78 78 77 77 77 77 77 77 77 77 76 76 77 77 77 77 78 78 78 77 76 77 77 77 76 77 75 73 73 74 75 77 79 79 79 78 77
82 81 77 78 77 77 78 78 77 77 76 76 77 77 77 76 76 76 76 77 77 77 77 77 77 76 76 76 76 76 76 77 77 72 73 74 75 77 79 78 77 77 78
86 80 77 77 77 77 77 77 76 76 76 76 76 76 76 76 76 76 76 76 76 76 76 76 76 75 75 75 75 75 76 76 72 69 73 72 77 78 79 78 77 77 77
86 80 77 76 77 76 75 77 76 76 76 75 76 76 76 76 76 76 75 75 76 76 76 75 75 75 75 75 74 75 76 76 71 70 70 71 77 79 79 78 77 77 77
86 80 77 75 75 75 75 76 76 76 76 75 75 75 74 70 70 73 74 75 75 75 75 75 74 74 74 74 75 75 76 69 69 70 71 75 77 79 79 78 77 76 76
83 80 79 76 75 75 79 76 74 75 74 73 73 72 70 69 67 74 75 76 76 76 75 75 74 74 74 68 69 74 71 69 69 69 71 76 77 79 79 78 77 77 76
85 81 81 78 77 76 79 75 73 73 72 72 71 70 69 70 69 70 67 71 68 73 69 71 70 69 68 67 68 70 73 69 69 70 74 77 78 79 78 78 77 77 76
85 84 83 80 78 77 81 76 74 73 72 72 72 71 69 69 68 67 67 67 66 66 65 66 65 66 66 69 70 71 71 69 69 72 70 78 76 78 78 77 77 77 76
80 84 80 81 79 79 79 77 76 75 74 74 73 73 71 69 67 68 68 67 66 65 65 65 65 67 67 68 70 72 71 72 69 71 70 77 75 76 77 78 77 77 77
81 81 77 80 80 80 80 77 77 77 75 75 74 73 71 69 68 67 67 67 67 66 65 65 65 66 65 66 67 69 69 69 71 72 70 71 75 75 75 76 77 77 77
81 82 76 77 79 79 80 76 77 77 76 76 72 73 73 70 69 68 67 66 66 66 66 65 65 65 64 65 66 66 67 70 67 71 69 67 70 74 74 75 76 77 77
80 81 79 83 77 77 78 72 75 75 76 75 72 73 73 70 70 68 67 66 66 66 65 64 63 63 62 62 62 63 65 65 69 70 68 68 67 69 73 74 75 76 76
81 78 76 75 76 74 71 71 72 72 72 72 71 71 72 73 72 68 67 66 66 65 64 64 63 62 61 61 62 62 64 63 65 69 68 71 67 67 69 72 73 74 75
76 76 76 74 75 74 74 71 71 71 70 71 70 67 71 71 72 68 66 66 65 64 64 63 62 62 61 61 63 64 63 63 65 65 65 69 67 69 68 67 69 71 73
77 75 73 71 71 75 74 73 71 67 68 69 71 72 71 71 71 68 66 65 65 63 63 62 62 61 59 60 58 59 60 62 62 62 63 65 69 69 67 67 68 68 69
76 73 71 71 73 74 76 73 70 69 68 70 70 68 72 71 71 68 67 65 64 62 62 61 61 59 59 59 57 58 56 58 60 62 62 64 64 65 68 69 66 67 65
71 70 70 71 71 71 72 72 69 69 68 68 67 67 69 71 71 67 66 64 63 62 61 61 61 60 56 58 59 57 55 53 55 58 61 65 63 64 66 67 67 68 67
69 70 70 70 71 71 73 70 69 66 64 66 66 66 67 70 70 68 66 65 63 62 61 61 62 59 58 56 58 60 60 60 55 53 58 60 62 62 63 63 63 66 66
70 68 68 69 70 70 71 69 68 66 67 66 65 65 65 65 68 69 66 65 63 62 62 62 61 60 59 57 57 57 58 60 60 57 52 56 60 63 62 62 62 63 67
70 68 69 69 68 69 69 69 68 67 66 66 63 62 62 62 64 66 67 64 63 62 62 62 62 61 61 59 58 58 57 57 57 56 54 55 56 58 60 61 61 62 65

GFSSE_sfc_temp_021.txt.gz
Temp
73 74 78 79 79 79 79 79 78 78 78 78 78 78 78 77 77 78 77 77 77 78 78 78 78 77 77 78 78 77 77 78 78 78 78 79 78 78 79 80 79 78 78
74 75 78 78 78 79 79 79 78 78 77 78 78 78 77 77 77 77 77 77 77 78 78 78 77 77 77 77 78 77 77 77 77 77 78 78 77 78 79 80 80 78 78
74 74 76 78 78 78 78 78 78 77 77 77 77 77 77 77 77 77 77 77 77 77 77 77 77 77 77 77 77 77 77 77 77 77 77 69 71 78 79 80 80 79 78
74 74 75 78 78 78 78 77 77 77 77 77 77 77 77 77 77 77 77 77 77 77 77 77 77 78 77 77 77 77 77 77 77 77 70 70 70 77 79 80 79 79 78
73 74 74 78 78 78 78 77 77 77 77 77 77 77 77 77 77 76 77 77 77 78 78 78 78 78 78 77 77 77 77 77 77 76 69 66 66 74 78 79 79 79 78
73 74 76 78 78 78 78 77 77 77 77 77 77 77 77 77 76 76 76 77 77 77 78 78 78 77 77 78 77 77 77 77 77 70 69 69 70 74 77 79 79 79 78
72 73 75 77 78 78 78 77 77 77 77 77 77 77 77 76 76 76 76 77 77 77 78 78 77 77 77 77 77 77 76 77 73 70 69 68 69 74 78 79 79 78 78
74 74 75 77 77 77 78 77 77 76 76 76 76 76 77 76 76 76 76 76 77 77 77 77 77 76 76 76 76 76 76 76 75 69 69 68 71 75 78 78 78 78 78
76 74 74 76 76 78 77 77 76 76 76 76 76 76 76 76 76 76 76 76 76 76 76 76 76 76 75 75 75 75 75 76 71 68 70 67 73 76 78 78 78 78 78
73 75 73 74 75 75 75 77 76 76 76 76 76 76 76 76 76 75 74 75 76 76 76 76 76 75 75 75 74 74 75 76 70 68 67 66 74 76 79 78 78 77 77
74 71 72 73 74 74 74 75 76 77 76 76 75 76 74 71 71 72 73 74 76 76 75 75 75 75 74 74 74 74 75 67 67 67 66 71 74 76 78 78 77 77 77
74 73 72 72 73 73 76 73 73 72 73 72 72 70 70 67 68 70 72 75 75 75 75 75 75 75 74 66 65 72 67 66 66 65 66 73 74 75 77 77 77 77 77
78 75 74 73 73 72 74 72 72 70 70 70 69 68 67 68 67 69 66 67 69 73 69 70 69 68 66 64 64 63 65 65 65 65 69 73 74 75 77 78 76 77 76
74 77 76 74 72 72 74 72 72 71 70 69 69 68 68 66 64 64 64 64 66 66 66 65 64 64 64 65 64 64 65 65 65 66 66 73 73 75 77 78 77 77 77
73 76 75 74 73 73 72 73 72 71 71 71 69 69 68 66 65 63 63 63 64 64 64 63 62 62 62 63 64 65 65 65 66 64 64 72 73 74 76 78 78 76 76
77 74 76 73 74 73 72 73 72 72 72 71 69 69 68 67 64 63 63 63 63 63 63 62 62 61 62 62 63 64 65 66 66 67 65 66 72 73 76 78 78 77 76
80 79 71 73 73 72 71 73 72 72 72 70 69 69 68 66 65 65 65 65 63 63 63 62 62 62 61 62 62 63 63 65 64 66 65 65 67 74 74 75 76 77 77
77 74 70 76 72 72 72 74 73 72 71 70 70 68 68 67 67 66 67 65 64 63 62 61 61 61 63 60 60 60 61 62 63 65 65 65 66 67 73 75 75 76 77
76 76 71 69 71 71 72 73 73 71 71 70 69 69 68 68 68 68 64 64 64 63 62 62 61 60 59 59 60 60 60 60 61 65 65 64 65 65 65 72 74 74 75
71 69 69 68 70 70 70 66 66 65 68 67 68 68 69 68 69 65 65 64 63 62 62 61 61 60 60 58 60 60 59 60 60 60 61 64 63 63 64 65 65 68 73
69 68 67 66 64 67 65 65 64 66 65 66 68 68 68 68 67 67 64 63 63 62 62 61 60 59 59 60 58 56 57 59 60 60 61 61 62 64 63 64 63 64 66
71 68 66 66 64 69 70 70 66 69 64 65 66 67 68 69 68 66 64 63 62 61 61 60 59 57 58 58 55 54 52 55 58 60 61 60 60 61 63 65 63 63 63
69 68 66 65 66 67 65 65 64 65 65 61 63 64 65 67 67 66 64 63 62 61 60 59 58 57 56 55 56 54 50 50 54 58 61 61 60 59 60 62 64 64 64
71 66 66 64 65 65 67 66 68 65 65 61 67 62 63 66 66 65 64 62 61 60 59 59 59 58 56 55 55 56 55 55 53 53 57 60 60 59 59 61 61 63 64
65 63 64 65 65 66 66 67 66 64 62 62 64 62 63 62 64 65 65 63 60 59 59 59 59 58 57 56 55 54 54 55 56 55 53 56 58 58 58 59 60 61 63
64 65 65 65 65 66 67 66 67 64 62 62 62 61 60 60 62 65 63 61 60 59 60 60 59 58 58 56 55 55 55 54 55 56 54 53 54 56 59 59 58 59 61

GFSSE_sfc_temp_024.txt.gz
Temp
70 74 79 79 79 79 79 79 79 78 78 78 78 78 78 77 77 78 78 78 78 78 78 78 78 78 78 78 77 77 77 77 77 78 78 79 78 78 79 80 80 80 78
73 75 78 78 78 79 79 79 78 78 78 78 78 78 77 77 78 77 78 78 78 78 78 78 78 78 77 78 77 77 77 77 77 77 78 76 77 78 79 80 81 79 78
74 74 76 78 78 79 78 78 78 77 78 78 77 77 77 77 78 77 77 77 78 78 78 78 78 77 77 77 77 77 77 77 76 77 77 73 74 78 80 79 80 79 79
74 74 75 78 78 78 78 78 77 77 77 77 77 77 77 77 77 77 77 77 78 78 78 78 78 77 77 77 77 77 76 77 77 77 73 72 73 76 78 79 80 79 79
72 74 74 78 78 78 78 78 77 77 77 77 77 77 77 77 77 77 77 77 78 78 78 78 78 78 77 77 77 76 76 76 77 76 72 71 70 75 77 78 79 79 78
73 74 76 78 78 78 78 77 77 77 77 77 77 77 77 77 76 76 77 77 77 78 78 78 78 77 77 77 77 77 76 77 77 74 72 72 73 73 76 78 79 78 78
71 73 75 78 77 78 78 78 77 77 77 77 77 77 77 77 76 76 76 77 77 77 77 77 77 77 77 77 77 77 76 76 76 73 72 71 72 73 76 79 79 78 78
71 71 73 78 77 77 78 77 77 76 76 76 77 77 77 76 76 76 76 77 77 77 77 77 77 76 76 76 76 76 76 76 77 73 72 72 72 75 78 78 78 78 78
73 71 71 75 76 78 77 77 76 76 76 76 76 76 76 76 76 76 76 76 76 76 76 76 76 76 76 75 75 75 75 76 75 72 72 72 73 76 78 78 78 78 78
70 72 70 71 74 74 75 77 76 76 76 76 76 76 76 76 76 76 75 75 76 76 76 76 76 75 75 75 75 74 75 75 74 72 72 71 73 76 77 78 78 78 78
72 69 69 70 71 72 73 74 76 77 76 76 75 75 74 72 72 73 74 74 76 76 75 75 75 75 75 75 74 74 75 72 71 71 71 71 73 75 77 78 78 78 78
71 71 71 70 71 71 74 71 73 72 73 72 72 72 71 69 69 71 73 75 75 75 75 75 75 75 75 70 70 72 71 70 70 70 71 72 74 75 76 77 77 77 77
78 73 73 72 72 71 73 71 71 71 71 70 70 70 70 69 70 71 68 71 70 74 71 73 72 71 69 68 68 68 68 69 69 70 71 72 74 75 76 77 77 77 77
73 76 75 73 72 71 73 72 72 71 70 70 70 69 68 68 67 68 67 66 67 69 69 69 68 68 67 67 67 67 68 68 68 69 69 72 72 74 76 77 77 77 76
74 77 75 72 71 71 70 72 70 71 71 71 70 69 69 67 66 67 66 65 65 67 67 67 66 66 66 66 67 67 67 68 68 69 69 70 72 73 75 77 78 77 78
73 72 73 71 72 72 70 71 71 71 71 70 70 70 69 67 66 65 65 64 65 65 66 66 65 65 65 66 66 66 67 68 68 69 69 69 71 73 74 76 77 78 78
76 73 68 71 71 70 70 70 71 72 71 70 71 69 69 67 65 65 64 63 64 65 65 64 64 64 64 65 64 65 66 67 67 68 68 68 70 72 73 75 76 76 76
70 70 69 73 70 70 71 71 72 71 70 70 71 69 69 67 66 65 64 63 64 64 64 64 63 63 63 64 63 63 64 66 67 67 68 69 69 69 73 75 75 75 76
72 70 70 65 69 69 70 70 70 69 69 70 69 68 69 67 67 66 65 65 66 65 64 63 63 64 63 62 62 63 63 63 65 68 67 67 68 69 70 74 74 74 75
70 67 66 65 66 67 67 67 66 65 68 68 67 67 68 67 68 66 65 65 65 64 63 63 64 63 63 62 62 62 62 63 63 64 65 68 68 68 68 67 72 74 74
67 65 65 63 62 66 65 65 64 66 65 65 67 67 67 67 68 66 65 65 64 64 64 64 63 62 61 62 60 60 60 61 62 62 64 65 66 67 66 65 68 70 72
68 66 65 63 62 66 68 65 65 65 64 66 66 67 68 68 67 67 65 64 64 63 63 63 62 60 61 61 59 57 56 59 60 62 63 63 65 65 67 67 67 68 68
65 65 66 63 62 65 65 64 62 63 63 62 64 65 67 68 67 67 66 65 64 63 62 61 61 60 59 58 59 58 54 54 56 60 62 63 63 63 65 66 67 68 68
68 65 64 63 62 64 65 65 64 61 61 62 64 64 65 67 67 66 66 65 64 63 62 61 61 60 59 58 58 58 59 59 56 56 58 60 62 62 63 64 66 67 68
63 61 60 61 63 64 65 65 64 62 61 63 63 63 64 64 66 66 65 64 63 62 62 61 60 60 59 59 58 57 58 58 59 58 55 56 59 60 62 63 65 65 67
65 64 64 63 63 64 65 65 63 62 62 62 62 62 61 62 63 64 65 64 62 62 61 61 61 60 60 59 58 58 58 57 57 58 56 54 56 59 61 63 63 64 65

GFSSE_sfc_temp_027.txt.gz
Temp
84 87 79 79 79 79 79 79 79 78 78 78 78 78 78 78 78 78 78 78 78 79 79 79 79 78 78 78 78 77 77 78 78 78 79 78 78 79 80 80 80 86 79
88 87 78 79 79 79 79 79 78 78 78 78 78 78 78 78 78 78 78 78 78 79 79 79 78 78 78 78 78 77 77 77 77 77 78 78 77 78 78 80 81 84 79
85 85 83 78 79 79 79 78 78 78 78 78 78 78 77 78 78 78 77 78 78 79 79 78 78 78 78 78 78 77 77 77 77 77 77 86 84 78 80 79 81 80 79
85 84 85 78 78 79 79 78 78 78 78 78 77 77 77 77 78 78 78 78 78 79 79 78 78 78 78 77 77 77 77 77 77 77 85 85 84 77 78 79 79 80 79
84 84 84 78 78 79 78 78 77 77 78 78 78 78 78 77 77 77 77 78 78 79 79 78 78 78 78 77 77 76 76 76 77 79 83 84 84 81 77 78 79 79 79
85 86 82 78 78 78 78 78 77 77 77 77 78 78 77 77 77 77 77 78 78 79 79 78 78 77 77 77 77 77 76 76 77 83 82 81 82 76 76 77 79 79 77
86 85 85 78 78 78 78 78 77 77 77 77 77 77 77 77 76 76 77 77 78 78 78 78 78 77 77 77 77 77 77 76 83 83 82 81 82 74 76 78 79 78 78
86 83 85 79 78 78 78 78 77 77 77 77 77 77 77 77 76 76 76 77 77 78 78 78 77 77 76 76 76 76 76 76 82 82 81 82 77 75 77 78 78 78 78
86 84 83 85 81 78 77 77 77 76 76 76 76 76 76 76 76 76 76 76 76 77 77 77 77 76 76 76 75 75 75 76 82 83 82 83 76 75 77 79 79 78 78
87 86 85 82 84 84 84 77 77 76 76 76 76 76 76 76 76 76 75 75 76 76 76 76 76 76 75 75 75 75 75 75 81 83 82 83 74 76 77 78 79 78 78
86 84 83 82 82 84 85 83 77 77 76 76 76 76 76 82 81 80 78 76 76 76 76 76 75 75 75 75 75 75 75 83 82 83 84 76 74 75 77 77 78 78 78
87 85 85 80 82 82 84 82 81 81 82 81 81 80 80 80 81 82 80 75 75 76 76 75 75 75 76 83 83 76 82 81 81 81 83 74 74 75 76 77 77 78 78
94 89 86 80 79 81 81 81 82 82 82 81 80 80 80 79 80 80 81 81 80 77 82 80 80 81 81 81 81 81 81 80 82 82 80 73 73 75 76 77 77 77 77
91 89 87 82 79 78 83 82 82 83 81 81 81 79 79 78 77 78 80 81 78 81 80 80 81 80 78 79 79 80 79 80 82 82 81 73 73 75 76 77 77 77 76
85 87 87 84 80 79 78 82 80 81 82 82 82 79 79 78 76 78 78 77 76 80 80 79 80 79 78 78 79 78 79 79 78 81 81 73 72 75 76 76 77 78 78
85 85 89 85 82 80 78 78 79 79 81 81 82 80 78 79 75 77 76 77 75 75 80 79 78 78 78 78 78 77 77 79 79 78 81 81 72 73 75 76 77 78 78
87 86 83 83 83 79 78 78 79 80 80 81 80 78 77 77 76 75 77 75 72 71 73 73 73 75 76 77 76 78 78 77 78 78 79 80 80 73 73 75 76 77 77
83 84 83 86 83 79 79 79 80 81 80 81 80 80 76 76 75 74 76 76 73 72 72 73 74 74 76 77 76 77 77 77 77 76 77 79 80 80 77 74 75 76 76
82 80 81 80 80 79 79 80 79 78 78 80 80 80 77 76 75 75 76 75 74 70 73 74 74 74 71 72 76 76 76 76 76 78 77 77 78 78 80 77 74 75 75
81 80 79 80 77 78 80 78 80 79 78 80 79 79 77 75 75 75 75 73 74 75 74 72 72 73 72 75 72 68 70 75 75 76 76 77 78 77 77 78 81 81 74
80 79 79 79 78 76 77 77 77 76 77 77 78 76 75 75 75 75 75 73 74 74 71 72 71 72 71 69 65 69 72 72 72 74 76 76 76 78 77 76 75 81 81
78 78 78 78 76 75 78 77 79 78 78 78 76 74 75 76 75 75 73 72 72 74 73 70 69 67 67 66 67 65 68 71 72 72 74 74 74 77 76 74 68 74 79
79 78 78 78 76 75 76 76 75 75 71 71 73 73 74 75 75 74 73 69 71 75 68 70 71 71 68 65 65 70 66 66 70 72 68 71 72 71 74 73 67 69 77
79 80 77 76 75 75 75 75 73 76 71 72 71 74 71 75 74 74 72 72 74 75 67 73 73 72 70 69 62 67 67 68 66 64 64 67 70 69 70 73 74 72 77
79 76 75 73 73 75 74 76 75 75 76 76 76 69 69 72 74 74 74 75 74 72 71 72 71 70 72 71 70 66 65 69 69 64 62 62 64 67 63 71 76 76 76
76 75 71 72 72 73 74 74 74 73 73 73 73 69 70 74 75 75 76 75 74 74 73 73 71 70 70 70 70 70 70 67 66 64 63 60 61 60 62 67 72 76 78

GFSSE_sfc_temp_030.txt.gz
Temp
99 95 79 79 79 79 80 79 79 79 79 79 79 79 79 78 78 79 79 79 79 80 80 80 79 79 79 79 79 78 78 78 78 79 79 79 79 80 80 81 81 87 79
101 94 79 79 79 79 80 79 79 79 78 78 79 78 78 78 78 78 78 78 79 79 79 80 79 79 79 79 79 78 78 78 78 78 79 78 79 79 79 81 81 83 79
100 93 86 79 79 79 79 79 79 78 78 78 78 78 78 78 78 78 78 78 79 79 79 79 79 79 79 79 78 78 78 77 77 78 78 90 91 79 80 79 81 80 79
98 92 91 79 79 79 79 78 78 78 78 78 78 78 78 78 78 78 78 78 79 79 79 79 79 79 79 78 78 78 77 77 77 78 88 93 91 78 78 79 77 80 79
96 93 92 79 79 79 79 78 78 78 78 78 78 78 78 78 77 77 78 78 79 79 79 79 79 79 78 78 78 77 77 77 77 80 90 90 90 83 77 78 80 79 80
97 96 88 78 79 79 79 78 78 78 78 78 78 78 78 78 77 77 77 78 79 79 79 79 79 78 78 78 78 77 77 77 77 90 88 85 87 77 77 78 79 79 79
99 98 94 78 78 79 79 79 78 78 78 78 78 78 78 77 77 77 77 78 79 79 79 79 78 78 78 78 78 77 77 77 85 89 88 87 88 76 76 78 78 79 78
101 98 97 80 78 78 78 78 77 77 77 77 77 77 77 77 77 77 77 77 78 78 78 78 78 77 77 77 77 77 77 77 86 89 88 88 77 75 77 79 79 79 78
104 98 97 92 83 78 78 77 77 77 77 77 77 77 77 77 77 77 77 77 77 77 77 77 77 77 77 77 76 76 76 77 85 90 90 89 76 76 77 79 79 79 79
103 102 98 95 93 90 89 77 77 77 77 76 76 76 76 77 76 76 75 76 77 77 77 77 77 77 76 76 76 76 76 76 84 88 90 90 76 76 77 78 79 79 79
103 100 98 96 94 93 96 89 78 77 77 76 77 76 77 86 84 84 80 78 76 76 76 76 76 76 76 76 75 75 75 88 90 89 91 77 75 76 77 77 78 79 79
102 102 100 93 93 93 95 93 87 88 86 84 85 84 84 85 87 88 84 77 76 76 76 76 76 76 76 90 87 77 86 89 88 89 90 76 75 76 77 77 77 78 79
103 104 102 94 89 91 92 93 91 90 89 87 85 85 84 86 87 86 88 84 83 78 85 81 81 84 86 89 89 89 90 87 89 89 86 75 74 75 77 77 77 77 78
102 102 100 96 88 86 93 92 93 92 90 89 88 85 85 86 85 85 87 87 81 79 83 86 85 86 85 85 86 87 86 87 89 89 86 75 74 75 76 77 77 77 77
97 98 99 97 90 87 85 93 91 91 92 91 91 87 87 87 85 85 86 87 86 89 83 82 84 85 84 84 86 85 85 86 86 87 88 75 74 74 75 77 77 77 78
96 97 98 97 93 88 87 87 89 88 91 91 91 90 85 87 86 86 85 85 87 86 84 84 83 85 82 86 85 84 84 85 86 85 88 81 74 74 75 76 77 77 78
96 97 93 93 94 89 87 88 89 92 90 91 91 88 86 84 84 83 85 85 86 85 82 83 84 80 84 85 83 84 82 81 84 84 85 84 79 73 74 75 76 77 78
93 93 94 97 97 91 89 90 90 92 92 91 91 90 85 83 83 82 86 85 86 85 84 85 81 83 83 83 78 75 78 82 84 82 81 84 81 84 75 75 75 76 77
92 91 91 92 93 89 88 89 89 88 89 91 91 90 86 83 82 83 84 85 83 85 84 82 82 81 80 79 80 75 78 84 83 84 82 81 82 83 84 76 75 75 76
90 89 89 90 89 87 87 87 89 90 89 89 89 89 86 84 82 80 83 83 83 84 83 82 79 81 76 77 79 81 81 81 82 82 81 80 80 80 83 83 82 82 75
89 88 87 86 86 86 88 87 88 88 88 87 88 86 85 82 80 79 83 82 81 82 79 78 77 77 77 76 77 79 81 81 78 81 82 77 78 81 82 80 82 79 81
87 87 87 86 86 85 87 87 90 89 91 89 88 84 83 78 80 80 80 81 79 81 77 75 77 78 75 74 76 74 73 76 79 78 79 77 77 79 80 79 81 79 77
88 87 86 86 85 85 84 86 84 86 85 85 84 79 77 80 80 79 79 81 79 80 77 77 76 77 72 73 73 74 73 70 72 76 73 74 74 73 75 77 78 79 79
88 90 88 86 84 85 84 86 81 84 83 84 83 78 80 79 77 76 76 80 78 81 80 79 77 80 76 71 73 74 76 75 71 65 73 73 72 72 73 75 76 77 72
89 88 87 85 84 83 83 84 83 82 86 84 83 77 73 75 76 78 80 78 78 83 79 79 78 77 75 78 79 76 73 74 73 69 64 66 68 71 72 73 75 73 69
88 87 86 82 82 82 82 81 81 81 83 83 81 70 71 73 75 79 80 80 80 81 78 79 78 76 76 77 79 77 71 71 73 67 65 66 67 70 75 77 72 74 73

GFSSE_sfc_temp_033.txt.gz
Temp
106 96 80 80 80 80 80 80 79 79 79 79 79 79 79 79 79 79 79 79 79 80 80 80 80 80 79 79 79 79 79 79 79 79 79 79 80 80 81 81 81 84 80
108 95 79 79 80 80 79 79 79 79 79 79 79 79 78 78 79 79 79 79 79 80 80 80 80 80 80 80 79 79 79 79 79 79 80 79 80 80 80 81 81 82 79
105 94 87 79 79 80 80 79 78 78 78 79 79 78 78 78 79 78 78 79 79 80 80 80 80 80 80 79 79 78 78 78 78 79 81 88 88 80 80 79 81 80 80
102 93 92 79 79 80 79 79 78 78 78 78 78 78 78 78 78 78 78 79 79 80 80 80 80 80 79 79 78 78 78 78 78 79 87 93 93 79 79 79 77 79 79
99 94 93 79 79 79 79 79 78 78 78 78 78 78 78 78 78 78 78 78 79 80 80 80 79 79 79 78 78 78 77 78 78 81 91 91 91 83 79 78 80 80 79
101 98 87 78 78 79 79 79 78 78 78 78 78 78 78 78 77 77 78 78 79 80 80 79 79 79 78 78 78 78 77 77 78 87 90 87 87 78 78 78 79 79 79
104 101 91 78 78 79 79 78 78 78 78 78 78 78 78 77 77 77 77 78 79 80 80 79 79 78 78 78 78 78 78 78 83 85 90 88 88 78 78 78 79 79 79
105 102 96 80 78 78 78 78 78 77 77 77 77 78 78 77 77 77 77 78 78 79 79 79 78 78 78 77 78 78 78 77 85 88 87 88 77 78 77 78 79 79 79
109 104 100 90 83 78 78 78 77 77 77 77 77 77 77 77 77 77 77 77 78 78 78 78 78 77 77 77 77 77 77 77 82 88 92 91 76 78 78 78 80 80 79
110 107 104 95 90 88 87 78 77 77 77 76 76 77 77 77 77 77 76 76 77 77 77 77 77 77 77 77 76 76 77 77 82 87 90 85 77 79 78 78 80 80 80
109 107 105 101 93 92 95 88 78 77 77 76 77 77 77 84 84 84 80 78 77 77 77 77 77 77 77 76 76 76 76 84 89 90 91 76 78 79 78 78 79 80 80
105 106 106 99 98 96 98 94 85 86 85 84 84 84 82 84 86 87 84 78 76 76 76 76 76 76 77 85 83 77 83 87 91 91 91 77 77 77 77 78 78 78 79
106 107 108 98 96 97 97 98 92 90 88 86 84 84 83 86 87 88 88 84 82 78 82 80 80 82 81 84 91 89 91 90 90 91 82 77 76 77 77 77 78 78 78
105 106 106 104 94 91 97 96 96 95 92 89 88 85 84 85 85 86 89 87 83 85 83 84 85 81 80 85 85 88 89 89 90 91 82 76 76 76 77 77 77 78 77
100 102 104 103 95 90 88 95 94 95 95 93 92 88 87 87 84 86 87 89 87 88 84 86 86 85 85 85 86 86 87 88 88 88 85 76 75 75 76 77 77 78 78
98 99 101 102 95 91 89 88 92 91 95 95 94 93 86 87 86 88 86 88 90 88 89 87 87 87 85 85 84 85 86 87 86 83 82 74 75 75 75 76 77 77 78
99 98 97 96 97 90 88 89 90 95 94 94 95 91 90 85 85 85 87 87 89 88 85 86 86 86 86 85 85 87 85 82 82 83 78 86 77 74 75 75 76 77 77
98 97 97 100 98 90 89 91 92 95 95 96 95 96 90 87 85 85 87 87 88 86 87 85 85 85 84 83 84 84 82 81 82 81 78 86 76 78 75 75 75 76 77
96 94 93 94 95 94 92 92 91 90 93 96 97 95 92 89 86 85 87 88 85 87 87 83 85 84 82 82 84 81 79 80 81 79 82 79 83 83 73 75 75 75 75
94 92 91 92 92 92 93 90 92 94 94 94 94 95 92 89 87 83 86 84 86 86 85 85 81 83 81 82 82 78 77 78 80 84 78 79 77 81 81 73 71 80 75
93 91 90 88 87 89 91 90 91 92 93 93 92 91 91 89 86 82 84 84 84 83 82 81 81 79 77 79 79 73 77 82 79 82 81 74 80 81 79 82 74 80 79
91 89 88 87 87 87 90 87 92 94 95 94 93 90 88 87 85 83 82 84 81 84 81 80 78 77 79 78 76 75 74 79 81 74 81 75 78 76 76 76 78 81 76
91 89 88 87 86 87 87 90 89 89 89 92 90 88 86 86 82 81 80 83 82 82 82 79 77 76 77 75 76 77 73 71 72 78 78 79 76 74 75 75 79 78 70
91 92 91 88 87 88 87 86 84 86 86 90 89 88 84 83 79 80 78 78 78 82 81 78 80 79 75 73 77 78 78 77 71 68 75 74 74 72 73 73 74 78 73
94 93 91 89 87 86 86 83 87 84 90 90 89 80 80 78 78 78 78 77 77 82 80 79 79 76 76 79 80 76 76 77 75 71 65 68 69 71 72 72 72 77 78
94 93 91 88 86 86 86 84 83 84 86 86 85 78 77 76 76 75 78 77 80 80 79 80 78 77 77 78 80 78 77 75 72 68 68 66 66 68 71 67 72 74 77

GFSSE_sfc_temp_036.txt.gz
Temp
91 84 80 80 80 79 80 80 80 80 79 79 79 79 79 79 79 79 79 79 79 80 80 80 80 80 79 80 79 79 79 79 79 79 79 80 80 81 81 81 81 83 79
90 83 79 80 80 79 79 80 79 79 79 79 79 79 78 78 79 79 78 78 79 80 80 80 80 80 80 80 79 79 79 79 79 80 80 79 80 80 81 81 81 80 79
88 83 81 79 79 79 79 79 79 78 79 79 79 78 78 78 78 78 78 78 79 80 80 80 80 80 80 79 79 78 78 78 78 79 80 77 81 80 80 80 80 79 78
87 82 82 79 79 79 79 78 78 78 78 78 78 78 78 78 78 78 78 78 79 80 80 80 80 80 79 79 78 78 78 78 78 79 78 81 85 80 80 80 78 80 78
87 84 83 79 79 79 79 78 78 78 78 78 78 78 78 78 78 78 78 78 79 80 80 80 80 79 79 79 78 78 78 78 78 79 80 78 77 80 79 79 80 80 79
90 89 81 78 78 79 79 78 78 78 78 78 78 78 78 78 77 77 77 78 79 80 80 80 79 79 78 78 78 78 77 77 78 80 82 80 79 78 79 79 79 79 79
94 92 82 78 78 79 79 79 78 78 77 78 78 78 78 77 77 77 77 78 78 79 79 79 78 78 78 78 78 78 78 78 78 79 81 82 76 77 79 78 78 78 78
97 93 85 79 78 78 78 78 78 77 77 77 77 78 78 77 77 77 77 78 78 78 79 79 78 78 77 77 77 77 77 77 80 79 81 78 76 78 79 78 79 78 78
102 94 86 82 80 78 78 77 77 77 77 77 76 76 77 77 76 76 77 77 77 78 78 78 78 77 77 77 77 76 77 77 76 77 82 78 77 78 79 78 79 79 78
103 99 90 84 83 81 81 77 77 76 76 76 76 76 76 76 76 76 75 76 77 77 77 77 77 77 76 76 76 76 76 77 75 77 79 76 77 79 79 78 79 79 79
103 99 94 88 84 83 85 82 77 77 77 76 76 76 75 76 76 78 77 77 76 76 77 77 76 76 76 76 76 76 76 75 78 78 79 76 77 79 79 78 79 79 79
101 101 100 87 85 85 91 83 78 79 78 77 77 76 75 75 76 79 79 77 76 76 76 76 76 76 76 77 76 76 75 76 79 81 76 77 77 79 78 78 78 78 79
103 98 100 88 85 86 88 85 81 81 79 78 77 76 75 76 76 79 78 77 75 76 76 76 75 75 75 76 79 76 76 78 80 80 78 76 77 78 78 78 77 77 78
91 88 93 92 87 86 91 89 84 83 81 80 78 76 76 75 75 76 79 78 74 76 74 75 75 75 75 77 78 79 78 80 78 78 76 76 76 77 78 77 77 77 77
96 96 96 90 87 85 85 87 86 85 83 81 80 78 78 78 75 77 78 79 77 78 75 76 76 76 76 76 79 80 80 80 80 78 74 76 76 76 77 77 77 77 77
94 96 95 94 85 85 84 82 83 81 83 83 83 81 78 78 76 78 77 78 78 78 78 77 77 77 77 78 77 78 78 79 79 78 77 73 75 75 76 77 77 78 78
93 94 91 92 87 83 82 82 83 83 85 83 85 82 80 78 77 77 78 78 79 78 76 76 76 77 78 78 77 77 77 78 77 77 76 73 73 74 74 75 76 76 77
90 88 86 94 87 82 81 82 83 83 83 85 86 86 83 80 78 78 79 78 79 78 78 76 76 75 75 76 74 75 75 75 76 75 75 75 71 73 74 74 75 76 76
88 87 88 89 90 84 82 82 82 82 83 84 85 87 85 82 80 79 80 79 77 78 77 77 74 74 73 74 74 74 74 73 73 74 75 74 75 74 74 74 74 74 75
90 87 87 87 87 86 83 81 82 82 82 84 85 84 84 84 81 79 80 78 78 78 77 75 73 74 74 73 76 74 72 71 71 73 72 75 75 73 73 71 70 73 74
87 83 83 82 81 81 80 80 79 80 80 83 84 84 85 83 82 78 79 78 78 76 76 74 73 72 72 73 71 70 70 71 71 73 73 72 72 73 72 71 69 67 73
85 83 82 81 80 80 81 78 79 81 84 85 85 83 84 83 81 80 78 77 76 77 74 74 72 71 72 72 68 67 64 66 70 71 72 70 71 71 72 72 70 70 67
84 82 81 79 79 79 79 80 79 80 80 81 82 81 82 82 81 79 77 77 76 76 75 73 73 71 69 71 72 67 63 62 64 68 69 70 70 68 69 69 70 68 67
85 87 84 80 78 80 80 80 77 78 77 80 81 82 80 81 80 79 77 77 76 77 74 74 74 72 70 68 68 70 69 67 62 60 65 67 68 68 68 67 68 67 65
86 84 81 80 79 80 79 79 79 78 80 81 81 79 77 78 78 78 76 76 75 76 74 74 72 71 72 69 67 69 68 67 67 63 60 62 65 65 67 66 67 67 65
88 87 83 80 79 80 80 79 77 77 77 80 79 76 76 76 74 74 76 74 73 73 74 74 72 72 71 69 67 69 68 66 65 63 61 61 61 64 65 66 66 66 67

GFSSE_sfc_temp_042.txt.gz
Temp
76 77 79 80 79 79 79 79 79 79 78 78 78 78 78 78 78 78 78 78 78 79 80 80 79 79 79 79 79 78 78 78 78 79 79 79 80 80 79 78 78 79 79
80 78 79 79 79 79 79 79 79 78 78 78 78 78 78 78 78 78 78 78 78 80 80 80 79 79 79 79 79 78 78 78 78 79 79 78 79 80 80 80 79 78 77
78 77 78 79 79 79 79 79 78 78 78 78 78 78 78 78 78 78 78 78 79 80 80 80 80 79 79 79 78 78 77 77 77 78 79 72 75 79 80 80 79 78 78
78 76 77 79 79 79 79 78 78 78 78 78 78 78 78 78 78 78 78 78 79 80 80 80 80 79 79 78 78 77 77 77 77 78 73 74 76 79 79 79 79 78 78
77 76 76 79 79 79 79 78 78 78 78 78 78 78 78 77 77 77 78 78 79 80 80 80 80 79 78 78 77 77 77 77 77 78 73 72 70 79 79 79 79 79 78
78 78 78 78 78 78 78 78 78 78 78 78 78 78 77 77 77 76 77 78 79 80 80 80 79 78 78 78 77 77 76 76 77 74 74 76 73 78 79 79 79 78 77
77 77 77 78 78 78 78 78 78 78 77 77 78 77 77 77 76 76 77 78 78 79 79 79 78 77 77 77 77 76 76 77 74 72 73 74 73 76 79 78 78 78 77
78 76 76 78 78 78 78 78 77 77 77 77 77 77 77 76 76 76 77 77 78 78 78 78 77 77 76 76 76 76 76 77 76 71 72 72 74 76 79 78 77 77 77
79 76 75 76 77 78 77 77 77 76 76 76 76 76 76 76 76 76 76 77 77 77 77 77 77 76 76 76 76 76 76 76 72 69 73 72 76 77 79 78 78 78 77
74 76 74 73 75 74 74 77 76 76 76 76 76 76 76 76 76 76 75 76 76 76 76 76 76 76 76 75 75 75 76 76 71 69 69 70 76 78 79 78 78 78 77
77 74 73 72 72 72 72 75 76 77 76 76 76 76 74 72 72 73 74 75 76 76 76 76 76 76 75 75 75 75 76 69 69 68 69 74 76 79 79 78 78 77 77
76 73 72 72 71 71 77 73 71 73 73 72 72 71 71 68 68 72 73 75 76 76 76 76 76 75 75 69 69 74 71 70 69 69 70 76 76 79 79 78 78 77 77
80 78 75 72 73 73 76 72 71 71 70 70 70 69 68 68 67 70 66 71 69 74 71 73 71 71 69 68 68 67 69 70 69 70 73 76 76 79 79 78 77 77 77
77 81 78 75 73 72 77 73 72 71 70 69 69 68 67 65 65 65 66 67 66 68 67 67 67 68 68 68 68 68 69 70 70 72 70 76 76 77 79 78 78 76 76
78 78 77 79 76 76 76 75 72 72 71 71 69 69 69 67 66 67 68 66 66 65 67 66 65 67 67 67 68 69 71 72 72 71 68 76 75 76 78 78 78 77 77
78 79 81 77 74 76 77 76 75 73 73 70 71 70 70 69 68 68 68 67 66 67 67 67 66 66 67 68 68 70 72 71 71 70 69 71 75 75 76 77 77 77 77
78 78 77 80 82 82 79 75 75 75 75 73 73 71 71 71 69 69 69 68 67 67 67 67 65 67 66 68 68 70 69 71 71 71 69 68 71 74 74 76 77 77 77
80 79 80 85 81 79 81 78 77 76 76 75 74 72 71 71 70 69 69 69 68 68 68 68 66 66 67 67 68 66 68 69 71 70 69 69 67 68 73 75 76 76 77
79 82 83 82 81 79 80 80 79 77 76 76 74 73 72 72 71 70 70 69 67 68 69 68 67 67 66 66 65 66 66 67 68 70 69 68 69 67 67 72 74 75 75
79 78 77 82 81 81 79 76 75 71 75 72 74 75 73 72 72 70 71 69 69 69 68 67 68 66 64 68 69 68 66 66 67 69 67 67 66 68 65 66 69 71 74
75 71 72 70 72 75 71 71 72 75 74 69 71 74 73 74 73 70 71 70 70 71 69 68 65 64 64 65 63 62 64 65 66 66 66 65 66 67 65 66 65 65 66
75 74 71 72 76 75 79 78 73 75 67 75 74 71 73 73 74 72 71 69 71 71 67 66 67 62 65 64 62 63 61 62 62 64 64 64 64 64 65 66 65 65 65
71 72 71 74 75 76 76 70 68 67 66 67 68 68 71 71 73 73 71 72 71 72 70 68 67 66 62 62 66 64 59 56 58 62 62 62 62 62 62 64 65 65 64
72 71 72 73 74 74 69 71 71 75 70 68 69 67 70 70 71 72 71 71 71 71 67 67 67 68 67 63 64 65 64 61 59 56 61 62 61 62 62 62 63 64 64
72 69 70 72 70 71 73 75 72 67 68 64 65 67 67 67 71 72 71 71 68 67 66 66 65 67 65 64 63 63 63 62 61 59 58 56 59 60 61 62 62 62 63
70 70 68 68 71 71 69 68 69 67 65 64 64 65 65 66 67 70 70 70 68 68 67 66 67 67 65 65 64 63 63 62 59 58 53 54 56 58 60 60 61 62 62

GFSSE_sfc_temp_045.txt.gz
Temp
74 76 79 79 79 79 79 79 79 79 78 78 78 79 78 78 78 78 78 78 78 79 79 79 79 79 79 79 78 78 78 78 78 79 79 79 79 79 79 79 79 77 79
76 76 79 79 79 79 79 79 79 78 78 78 78 78 78 78 78 78 78 78 78 79 79 79 79 79 79 79 78 78 78 78 78 78 78 78 78 79 79 78 78 77 77
77 76 78 79 79 79 79 78 78 78 78 78 78 78 78 78 78 78 78 78 79 79 80 79 79 79 79 79 78 78 77 77 77 78 79 71 73 79 79 80 78 79 78
78 76 76 79 79 79 79 78 78 78 78 78 78 78 78 78 78 78 78 78 79 79 80 80 79 79 79 78 78 77 77 77 77 78 71 72 75 79 79 79 80 79 78
77 77 77 78 79 79 79 78 78 78 78 78 78 78 78 77 77 77 78 78 79 80 80 80 79 79 78 78 77 77 76 76 77 76 72 70 69 78 79 79 79 79 78
77 77 78 78 78 79 79 78 78 78 78 78 78 78 77 77 77 77 77 78 79 80 80 80 79 78 78 78 77 76 76 76 77 72 72 73 69 78 79 78 78 78 77
76 77 78 78 78 78 79 78 78 78 77 77 78 78 77 77 77 77 77 78 78 79 79 79 78 77 77 77 77 76 76 76 73 70 71 72 72 75 78 78 78 78 77
76 76 77 78 78 78 78 78 77 77 77 77 77 77 77 77 76 77 77 77 78 78 78 78 77 77 76 76 76 76 76 76 75 70 70 70 73 76 78 78 78 77 78
77 76 76 76 77 78 78 77 77 77 76 76 76 76 76 76 76 76 76 77 77 77 77 77 77 76 76 76 76 75 76 76 71 69 72 70 74 77 79 78 78 77 77
71 74 73 73 75 74 75 77 77 76 76 76 76 76 76 76 76 76 75 76 76 76 76 76 76 76 75 75 75 75 76 76 70 68 68 68 75 77 79 78 78 78 77
73 69 69 71 70 70 71 75 76 77 76 76 76 76 75 73 72 73 74 75 76 76 76 76 76 75 75 75 75 75 76 68 68 68 68 73 75 77 79 78 78 78 77
71 69 71 70 69 69 75 71 70 73 73 73 73 73 72 69 69 71 73 75 76 76 76 76 75 75 75 68 69 74 69 68 69 69 69 74 76 78 79 78 78 77 77
76 74 72 69 69 69 70 68 68 68 69 70 69 70 69 67 68 69 66 69 67 74 68 72 70 69 68 67 67 66 67 67 67 70 71 75 76 78 79 77 78 78 77
72 75 73 71 69 68 69 68 68 68 67 67 68 67 67 66 65 66 65 65 65 65 65 66 66 67 67 67 67 66 66 67 66 68 68 75 75 77 79 78 77 77 77
75 75 74 73 72 71 70 70 69 69 68 67 66 67 67 66 65 64 64 63 64 63 64 64 64 65 66 66 66 67 67 67 68 68 66 74 74 76 77 78 78 78 78
77 76 76 74 74 75 76 75 73 72 72 67 67 69 67 67 64 64 63 63 62 64 64 65 64 64 65 65 66 66 67 67 68 68 68 67 74 75 76 77 78 78 77
79 80 76 76 76 75 76 77 77 75 73 72 71 69 69 68 65 66 64 64 65 64 63 64 63 63 62 64 64 65 66 67 68 69 68 67 69 75 75 76 77 77 77
73 74 77 80 77 77 73 74 76 75 74 74 73 70 69 69 67 65 66 66 66 64 65 64 62 61 62 62 64 63 64 66 67 68 68 67 67 68 73 75 75 76 77
74 73 73 74 78 78 82 79 77 74 75 76 74 71 70 70 69 68 67 67 64 65 65 65 62 64 61 62 63 63 65 65 66 68 68 66 67 68 67 70 74 75 76
73 74 72 73 74 74 74 74 74 75 74 76 73 73 71 70 70 68 67 65 66 66 64 64 64 62 61 64 67 65 64 64 65 65 66 66 66 68 67 67 66 69 74
74 71 71 71 72 73 71 71 72 71 74 73 73 72 70 70 70 68 68 66 66 66 66 65 64 62 61 62 61 61 62 64 64 64 65 65 65 65 65 65 65 64 66
73 72 74 74 76 73 78 76 77 77 78 76 73 69 71 71 71 69 68 67 66 67 63 65 64 60 61 62 60 60 58 61 62 64 63 63 63 64 65 65 64 64 64
71 68 71 73 76 75 78 77 65 66 66 67 68 67 69 71 71 70 69 68 66 68 66 65 64 63 60 61 64 64 57 57 57 60 61 62 62 61 62 63 64 64 64
69 71 72 70 72 74 76 76 76 78 75 67 71 74 69 69 70 70 70 68 67 69 67 67 65 64 63 62 63 64 64 62 58 55 58 60 61 62 61 61 62 63 64
69 67 69 69 65 69 72 76 76 72 70 66 63 64 65 65 67 70 69 68 67 68 66 66 63 64 65 64 64 62 63 62 62 60 56 58 58 59 60 60 61 61 63
66 64 64 64 66 67 68 71 73 76 68 64 62 63 63 63 65 67 68 67 67 67 66 66 67 66 65 65 64 64 63 61 60 59 58 55 54 57 58 59 59 60 61

GFSSE_sfc_temp_048.txt.gz
Temp
72 76 80 80 79 79 79 79 79 79 79 79 79 79 78 78 78 79 78 78 78 79 79 79 79 79 79 79 79 78 78 78 78 79 79 79 79 79 79 79 79 79 79
75 76 79 79 79 79 79 79 79 79 79 79 79 78 78 78 78 78 78 78 78 79 79 79 79 79 79 79 79 78 78 78 78 78 78 78 79 79 79 79 79 78 78
76 77 78 79 79 79 79 79 78 78 78 78 78 78 78 78 78 78 78 78 79 79 79 80 80 79 79 79 78 78 78 77 78 78 79 75 77 79 79 79 79 79 78
77 76 77 79 79 79 79 78 78 78 78 78 78 78 78 78 78 78 78 78 79 80 80 80 80 79 79 79 78 77 77 77 77 78 74 75 77 79 79 80 79 79 78
77 77 77 78 79 79 79 78 78 78 78 78 78 78 78 78 78 77 78 78 79 80 80 80 80 79 78 78 77 77 77 77 77 76 74 74 74 78 79 79 79 79 78
76 76 77 78 78 79 79 78 78 78 78 78 78 78 78 78 77 77 77 78 79 80 80 80 79 78 78 78 77 77 76 76 76 75 74 75 74 76 79 78 78 78 77
75 75 77 78 78 79 79 78 78 78 78 77 78 78 78 77 77 77 77 78 79 79 79 79 78 77 77 77 77 76 76 77 75 74 74 74 74 75 78 78 78 78 77
74 74 76 78 78 78 78 78 78 77 77 77 77 77 77 77 77 77 77 78 78 78 79 78 77 77 76 76 77 76 76 76 75 73 73 74 74 75 78 78 78 77 77
73 72 74 76 77 78 78 77 77 77 77 77 77 77 77 77 77 77 77 77 77 77 77 77 77 76 76 76 76 76 76 76 74 73 73 74 74 76 78 78 78 78 77
70 71 71 72 74 75 75 77 77 77 76 76 76 76 76 76 76 76 75 76 77 77 77 76 76 76 75 75 75 75 76 76 74 72 73 73 74 77 78 79 78 78 77
71 68 69 70 71 72 73 75 77 77 77 76 76 76 75 74 74 75 75 75 76 76 76 76 76 75 75 75 75 76 76 72 72 72 73 72 74 77 78 79 78 78 77
69 68 68 69 71 71 75 72 74 73 75 75 75 74 75 74 71 72 74 75 76 76 76 76 75 75 76 72 72 76 73 72 72 72 73 73 75 77 78 78 78 78 77
75 73 71 71 70 71 73 69 70 70 73 73 71 72 74 71 70 71 69 72 70 75 71 74 73 72 71 70 70 70 71 71 71 72 73 75 75 77 78 78 78 78 77
74 76 72 69 68 68 68 68 68 69 68 68 69 68 69 67 67 67 67 67 67 68 68 68 68 69 69 69 69 69 70 70 70 71 72 74 75 77 78 79 78 78 77
71 73 71 70 70 70 69 69 69 69 69 68 68 67 67 67 66 66 66 66 66 66 67 66 66 67 68 68 69 69 69 70 70 71 71 73 74 75 77 79 78 79 78
75 74 74 72 71 71 71 69 70 71 71 69 69 69 68 68 67 66 66 66 64 65 66 66 66 66 67 68 68 68 69 70 70 71 72 72 73 74 75 77 79 79 79
75 77 74 72 71 70 71 71 73 73 72 71 71 70 69 68 66 68 66 65 66 64 65 65 65 65 65 66 67 68 68 69 70 70 71 72 72 73 75 76 77 78 78
72 74 76 78 74 73 73 76 76 74 73 73 72 71 70 69 68 66 66 66 65 64 65 66 64 64 65 65 66 66 67 68 69 70 71 72 71 71 74 75 76 77 77
71 71 72 73 74 73 74 74 72 71 74 75 73 72 70 70 69 67 66 66 64 64 65 66 64 66 64 64 65 65 66 67 68 71 70 70 70 71 71 72 73 73 76
69 69 69 71 72 71 71 71 69 70 72 72 73 73 70 69 69 67 67 66 65 64 64 65 64 64 64 65 67 67 66 67 68 69 70 69 69 71 71 70 70 72 73
67 67 67 67 71 73 69 69 69 69 69 70 71 72 70 70 69 67 67 66 65 65 65 65 65 63 62 64 65 64 65 67 67 67 68 68 68 70 70 69 69 69 70
65 65 65 65 68 71 77 71 71 71 71 72 71 70 70 70 69 69 68 66 65 66 64 64 64 62 63 64 64 63 62 64 66 67 67 67 67 68 68 69 68 68 69
63 64 66 65 66 67 71 69 66 66 66 68 68 69 70 71 70 69 68 68 66 67 65 65 65 64 62 62 65 66 60 60 62 64 65 66 66 66 66 67 68 68 68
62 64 63 64 65 68 66 68 67 73 72 75 77 72 69 71 71 70 69 68 67 67 66 66 66 65 64 62 63 65 66 64 62 60 62 64 64 65 65 65 67 68 68
61 60 60 60 62 66 66 68 71 71 75 75 67 69 68 67 70 71 70 68 67 67 68 66 65 64 65 64 64 64 65 64 65 61 60 61 63 64 65 65 66 66 68
58 58 58 59 59 63 65 67 69 71 72 66 64 66 66 64 65 67 69 69 68 67 67 66 66 65 65 66 66 65 64 63 62 61 62 60 61 62 63 64 64 65 65